datetime,swe
2001-09-04,0.0
2001-09-05,0.0
2001-09-06,0.0
2001-09-07,0.0
2001-09-08,0.0
2001-09-09,0.0
2001-09-10,0.0
2001-09-11,0.0
2001-09-12,0.0
2001-09-13,0.0
2001-09-14,0.0
2001-09-15,0.0
2001-09-16,0.0
2001-09-17,0.0
2001-09-18,0.0
2001-09-19,0.0
2001-09-20,0.0
2001-09-21,0.0
2001-09-22,0.0
2001-09-23,0.0
2001-09-24,0.0
2001-09-25,0.0
2001-09-26,0.0
2001-09-27,0.0
2001-09-28,0.0
2001-09-29,0.0
2001-09-30,0.0
2001-10-01,0.0
2001-10-02,0.0
2001-10-03,0.0
2001-10-04,0.0
2001-10-05,0.0
2001-10-06,0.0
2001-10-07,0.0
2001-10-08,0.0
2001-10-09,0.0
2001-10-10,0.0
2001-10-11,0.0
2001-10-12,0.0
2001-10-13,0.0
2001-10-14,0.0
2001-10-15,0.0
2001-10-16,0.0
2001-10-17,0.0
2001-10-18,0.0
2001-10-19,0.0
2001-10-20,0.0
2001-10-21,0.0
2001-10-22,0.0
2001-10-23,0.0
2001-10-24,0.0
2001-10-25,0.0
2001-10-26,0.0
2001-10-27,0.0
2001-10-28,0.0
2001-10-29,0.0
2001-10-30,0.0
2001-10-31,0.0
2001-11-01,0.0
2001-11-02,0.0
2001-11-03,0.0
2001-11-04,0.0
2001-11-05,0.0
2001-11-06,0.0
2001-11-07,0.0
2001-11-08,0.0
2001-11-09,0.0
2001-11-10,0.0
2001-11-11,0.0
2001-11-12,0.0
2001-11-13,0.0
2001-11-14,0.0
2001-11-15,0.0
2001-11-16,0.0
2001-11-17,0.0
2001-11-18,0.0
2001-11-19,0.1
2001-11-20,0.30000000000000004
2001-11-21,0.4
2001-11-22,1.3
2001-11-23,1.2
2001-11-24,1.2
2001-11-25,2.3
2001-11-26,2.4
2001-11-27,2.4
2001-11-28,2.4
2001-11-29,3.8
2001-11-30,3.9
2001-12-01,4.2
2001-12-02,4.9
2001-12-03,5.5
2001-12-04,5.7
2001-12-05,5.9
2001-12-06,7.1
2001-12-07,7.5
2001-12-08,7.5
2001-12-09,7.5
2001-12-10,7.6
2001-12-11,7.6
2001-12-12,7.8
2001-12-13,7.8
2001-12-14,9.0
2001-12-15,9.1
2001-12-16,9.1
2001-12-17,9.4
2001-12-18,9.7
2001-12-19,10.3
2001-12-20,10.5
2001-12-21,10.7
2001-12-22,10.6
2001-12-23,10.8
2001-12-24,10.8
2001-12-25,10.7
2001-12-26,10.8
2001-12-27,10.8
2001-12-28,10.8
2001-12-29,10.8
2001-12-30,10.9
2001-12-31,11.1
2002-01-01,11.3
2002-01-02,11.4
2002-01-03,11.6
2002-01-04,11.8
2002-01-05,11.7
2002-01-06,11.6
2002-01-07,11.5
2002-01-08,11.6
2002-01-09,11.4
2002-01-10,11.4
2002-01-11,11.4
2002-01-12,11.3
2002-01-13,11.3
2002-01-14,11.3
2002-01-15,11.3
2002-01-16,11.3
2002-01-17,11.3
2002-01-18,11.3
2002-01-19,11.3
2002-01-20,11.4
2002-01-21,11.8
2002-01-22,12.5
2002-01-23,12.6
2002-01-24,12.5
2002-01-25,12.6
2002-01-26,12.7
2002-01-27,12.9
2002-01-28,12.9
2002-01-29,12.9
2002-01-30,12.9
2002-01-31,12.9
2002-02-01,12.9
2002-02-02,13.0
2002-02-03,13.0
2002-02-04,13.0
2002-02-05,13.0
2002-02-06,13.0
2002-02-07,13.1
2002-02-08,13.6
2002-02-09,13.7
2002-02-10,13.8
2002-02-11,13.7
2002-02-12,13.8
2002-02-13,13.8
2002-02-14,13.9
2002-02-15,13.8
2002-02-16,13.6
2002-02-17,13.6
2002-02-18,14.1
2002-02-19,14.2
2002-02-20,14.7
2002-02-21,14.9
2002-02-22,14.8
2002-02-23,14.9
2002-02-24,15.1
2002-02-25,15.5
2002-02-26,15.4
2002-02-27,15.5
2002-02-28,15.4
2002-03-01,15.5
2002-03-02,15.6
2002-03-03,15.8
2002-03-04,15.9
2002-03-05,15.7
2002-03-06,15.2
2002-03-07,15.5
2002-03-08,15.9
2002-03-09,16.0
2002-03-10,16.0
2002-03-11,16.2
2002-03-12,16.4
2002-03-13,16.5
2002-03-14,16.7
2002-03-15,16.6
2002-03-16,16.3
2002-03-17,16.3
2002-03-18,16.5
2002-03-19,16.6
2002-03-20,16.7
2002-03-21,16.6
2002-03-22,16.5
2002-03-23,16.2
2002-03-24,16.1
2002-03-25,16.2
2002-03-26,16.0
2002-03-27,15.9
2002-03-28,15.8
2002-03-29,15.9
2002-03-30,15.9
2002-03-31,15.7
2002-04-01,15.4
2002-04-02,14.9
2002-04-03,14.5
2002-04-04,14.1
2002-04-05,13.1
2002-04-06,12.3
2002-04-07,11.7
2002-04-08,11.1
2002-04-09,10.2
2002-04-10,9.8
2002-04-11,9.1
2002-04-12,8.3
2002-04-13,7.5
2002-04-14,6.3
2002-04-15,4.7
2002-04-16,4.8
2002-04-17,5.3
2002-04-18,5.6
2002-04-19,5.5
2002-04-20,5.6
2002-04-21,5.4
2002-04-22,5.0
2002-04-23,4.1
2002-04-24,3.0
2002-04-25,1.6
2002-04-26,0.8
2002-04-27,0.30000000000000004
2002-04-28,0.1
2002-04-29,0.0
2002-04-30,0.0
2002-05-01,0.0
2002-05-02,0.0
2002-05-03,0.0
2002-05-04,0.0
2002-05-05,0.0
2002-05-06,0.0
2002-05-07,0.0
2002-05-08,0.0
2002-05-09,0.0
2002-05-10,0.0
2002-05-11,0.0
2002-05-12,0.0
2002-05-13,0.0
2002-05-14,0.0
2002-05-15,0.0
2002-05-16,0.0
2002-05-17,0.0
2002-05-18,0.0
2002-05-19,0.0
2002-05-20,0.0
2002-05-21,0.0
2002-05-22,0.0
2002-05-23,0.0
2002-05-24,0.0
2002-05-25,0.0
2002-05-26,0.0
2002-05-27,0.0
2002-05-28,0.0
2002-05-29,0.0
2002-05-30,0.0
2002-05-31,0.0
2002-06-01,0.0
2002-06-02,0.0
2002-06-03,0.0
2002-06-04,0.0
2002-06-05,0.0
2002-06-06,0.0
2002-06-07,0.0
2002-06-08,0.0
2002-06-09,0.0
2002-06-10,0.0
2002-06-11,0.0
2002-06-12,0.0
2002-06-13,0.0
2002-06-14,0.0
2002-06-15,0.0
2002-06-16,0.0
2002-06-17,0.0
2002-06-18,0.0
2002-06-19,0.0
2002-06-20,0.0
2002-06-21,0.0
2002-06-22,0.0
2002-06-23,0.0
2002-06-24,0.0
2002-06-25,0.0
2002-06-26,0.0
2002-06-27,0.0
2002-06-28,0.0
2002-06-29,0.0
2002-06-30,0.0
2002-07-01,0.0
2002-07-02,0.0
2002-07-03,0.0
2002-07-04,0.0
2002-07-05,0.0
2002-07-06,0.0
2002-07-07,0.0
2002-07-08,0.0
2002-07-09,0.0
2002-07-10,0.0
2002-07-11,0.0
2002-07-12,0.0
2002-07-13,0.0
2002-07-14,0.0
2002-07-15,0.0
2002-07-16,0.0
2002-07-17,0.0
2002-07-18,0.0
2002-07-19,0.0
2002-07-20,0.0
2002-07-21,0.0
2002-07-22,0.0
2002-07-23,0.0
2002-07-24,0.0
2002-07-25,0.0
2002-07-26,0.0
2002-07-27,0.0
2002-07-28,0.0
2002-07-29,0.0
2002-07-30,0.0
2002-07-31,0.0
2002-08-01,0.0
2002-08-02,0.0
2002-08-03,0.0
2002-08-04,0.0
2002-08-05,0.0
2002-08-06,0.0
2002-08-07,0.0
2002-08-08,0.0
2002-08-09,0.0
2002-08-10,0.0
2002-08-11,0.0
2002-08-12,0.0
2002-08-13,0.0
2002-08-14,0.0
2002-08-15,0.0
2002-08-16,0.0
2002-08-17,0.0
2002-08-18,0.0
2002-08-19,0.0
2002-08-20,0.0
2002-08-21,0.0
2002-08-22,0.0
2002-08-23,0.0
2002-08-24,0.0
2002-08-25,0.0
2002-08-26,0.0
2002-08-27,0.0
2002-08-28,0.0
2002-08-29,0.0
2002-08-30,0.0
2002-08-31,0.0
2002-09-01,0.0
2002-09-02,0.0
2002-09-03,0.0
2002-09-04,0.0
2002-09-05,0.0
2002-09-06,0.0
2002-09-07,0.0
2002-09-08,0.0
2002-09-09,0.0
2002-09-10,0.0
2002-09-11,0.0
2002-09-12,0.0
2002-09-13,0.0
2002-09-14,0.0
2002-09-15,0.0
2002-09-16,0.0
2002-09-17,0.0
2002-09-18,0.0
2002-09-19,0.0
2002-09-20,0.0
2002-09-21,0.0
2002-09-22,0.0
2002-09-23,0.0
2002-09-24,0.0
2002-09-25,0.0
2002-09-26,0.0
2002-09-27,0.0
2002-09-28,0.0
2002-09-29,0.0
2002-09-30,0.0
2002-10-01,0.0
2002-10-02,0.0
2002-10-03,0.0
2002-10-04,0.0
2002-10-05,0.0
2002-10-06,0.0
2002-10-07,0.0
2002-10-08,0.0
2002-10-09,0.0
2002-10-10,0.0
2002-10-11,0.0
2002-10-12,0.0
2002-10-13,0.0
2002-10-14,0.0
2002-10-15,0.0
2002-10-16,0.0
2002-10-17,0.0
2002-10-18,0.0
2002-10-19,0.0
2002-10-20,0.0
2002-10-21,0.0
2002-10-22,0.0
2002-10-23,0.0
2002-10-24,0.0
2002-10-25,0.0
2002-10-26,0.0
2002-10-27,0.0
2002-10-28,0.0
2002-10-29,0.0
2002-10-30,0.0
2002-10-31,0.0
2002-11-01,0.0
2002-11-02,0.0
2002-11-03,0.0
2002-11-04,0.0
2002-11-05,0.0
2002-11-06,0.0
2002-11-07,0.0
2002-11-08,0.5
2002-11-09,0.7000000000000001
2002-11-10,1.7000000000000002
2002-11-11,1.9
2002-11-12,1.9
2002-11-13,2.1
2002-11-14,2.0
2002-11-15,2.0
2002-11-16,2.1
2002-11-17,2.0
2002-11-18,2.1
2002-11-19,2.1
2002-11-20,2.1
2002-11-21,2.1
2002-11-22,2.1
2002-11-23,2.0
2002-11-24,2.1
2002-11-25,2.1
2002-11-26,2.1
2002-11-27,2.1
2002-11-28,2.1
2002-11-29,2.1
2002-11-30,2.2
2002-12-01,2.2
2002-12-02,2.2
2002-12-03,2.2
2002-12-04,2.1
2002-12-05,2.4
2002-12-06,2.2
2002-12-07,2.4
2002-12-08,2.4
2002-12-09,2.1
2002-12-10,2.0
2002-12-11,2.3
2002-12-12,2.4
2002-12-13,2.3
2002-12-14,3.0
2002-12-15,3.2
2002-12-16,3.6
2002-12-17,4.4
2002-12-18,4.4
2002-12-19,4.5
2002-12-20,4.7
2002-12-21,5.0
2002-12-22,5.1
2002-12-23,5.1
2002-12-24,5.0
2002-12-25,5.1
2002-12-26,5.4
2002-12-27,5.9
2002-12-28,7.1
2002-12-29,8.2
2002-12-30,8.4
2002-12-31,9.6
2003-01-01,9.9
2003-01-02,10.1
2003-01-03,10.1
2003-01-04,10.1
2003-01-05,10.0
2003-01-06,10.1
2003-01-07,10.1
2003-01-08,10.2
2003-01-09,10.2
2003-01-10,10.2
2003-01-11,10.3
2003-01-12,10.5
2003-01-13,11.2
2003-01-14,10.9
2003-01-15,11.1
2003-01-16,11.3
2003-01-17,11.3
2003-01-18,11.4
2003-01-19,11.5
2003-01-20,11.6
2003-01-21,11.4
2003-01-22,11.4
2003-01-23,11.2
2003-01-24,11.3
2003-01-25,11.4
2003-01-26,11.2
2003-01-27,10.9
2003-01-28,10.8
2003-01-29,10.9
2003-01-30,10.8
2003-01-31,10.4
2003-02-01,10.4
2003-02-02,10.4
2003-02-03,10.4
2003-02-04,10.4
2003-02-05,10.4
2003-02-06,10.4
2003-02-07,10.4
2003-02-08,10.4
2003-02-09,10.4
2003-02-10,10.1
2003-02-11,10.4
2003-02-12,10.3
2003-02-13,10.0
2003-02-14,10.3
2003-02-15,10.4
2003-02-16,10.7
2003-02-17,11.4
2003-02-18,11.5
2003-02-19,11.6
2003-02-20,11.6
2003-02-21,11.6
2003-02-22,11.7
2003-02-23,11.7
2003-02-24,11.7
2003-02-25,11.7
2003-02-26,11.7
2003-02-27,11.7
2003-02-28,11.7
2003-03-01,11.7
2003-03-02,11.7
2003-03-03,12.0
2003-03-04,12.1
2003-03-05,12.2
2003-03-06,12.1
2003-03-07,11.9
2003-03-08,11.9
2003-03-09,11.8
2003-03-10,12.1
2003-03-11,12.0
2003-03-12,11.6
2003-03-13,11.3
2003-03-14,11.1
2003-03-15,11.6
2003-03-16,12.1
2003-03-17,12.5
2003-03-18,12.7
2003-03-19,12.9
2003-03-20,12.6
2003-03-21,12.7
2003-03-22,12.5
2003-03-23,12.5
2003-03-24,13.4
2003-03-25,12.3
2003-03-26,12.7
2003-03-27,12.9
2003-03-28,13.5
2003-03-29,13.2
2003-03-30,12.6
2003-03-31,12.0
2003-04-01,11.7
2003-04-02,11.8
2003-04-03,11.8
2003-04-04,12.2
2003-04-05,12.5
2003-04-06,12.7
2003-04-07,12.8
2003-04-08,12.6
2003-04-09,12.5
2003-04-10,12.0
2003-04-11,11.3
2003-04-12,10.7
2003-04-13,10.9
2003-04-14,11.2
2003-04-15,11.5
2003-04-16,11.4
2003-04-17,11.6
2003-04-18,11.6
2003-04-19,11.6
2003-04-20,11.0
2003-04-21,10.3
2003-04-22,10.8
2003-04-23,10.6
2003-04-24,10.0
2003-04-25,10.8
2003-04-26,11.3
2003-04-27,11.5
2003-04-28,11.3
2003-04-29,11.4
2003-04-30,11.4
2003-05-01,11.1
2003-05-02,10.7
2003-05-03,10.2
2003-05-04,10.1
2003-05-05,10.3
2003-05-06,10.0
2003-05-07,9.5
2003-05-08,9.0
2003-05-09,9.4
2003-05-10,9.3
2003-05-11,9.2
2003-05-12,9.0
2003-05-13,8.3
2003-05-14,6.8
2003-05-15,5.4
2003-05-16,3.8
2003-05-17,1.7000000000000002
2003-05-18,1.1
2003-05-19,0.6000000000000001
2003-05-20,0.30000000000000004
2003-05-21,0.2
2003-05-22,0.0
2003-05-23,0.0
2003-05-24,0.0
2003-05-25,0.0
2003-05-26,0.0
2003-05-27,0.0
2003-05-28,0.0
2003-05-29,0.0
2003-05-30,0.0
2003-05-31,0.0
2003-06-01,0.0
2003-06-02,0.0
2003-06-03,0.0
2003-06-04,0.0
2003-06-05,0.0
2003-06-06,0.0
2003-06-07,0.0
2003-06-08,0.0
2003-06-09,0.0
2003-06-10,0.0
2003-06-11,0.0
2003-06-12,0.0
2003-06-13,0.0
2003-06-14,0.0
2003-06-15,0.0
2003-06-16,0.0
2003-06-17,0.0
2003-06-18,0.0
2003-06-19,0.0
2003-06-20,0.0
2003-06-21,0.0
2003-06-22,0.0
2003-06-23,0.0
2003-06-24,0.0
2003-06-25,0.0
2003-06-26,0.0
2003-06-27,0.0
2003-06-28,0.0
2003-06-29,0.0
2003-06-30,0.0
2003-07-01,0.0
2003-07-02,0.0
2003-07-03,0.0
2003-07-04,0.0
2003-07-05,0.0
2003-07-06,0.0
2003-07-07,0.0
2003-07-08,0.0
2003-07-09,0.0
2003-07-10,0.0
2003-07-11,0.0
2003-07-12,0.0
2003-07-13,0.0
2003-07-14,0.0
2003-07-15,0.0
2003-07-16,0.0
2003-07-17,0.0
2003-07-18,0.0
2003-07-19,0.0
2003-07-20,0.0
2003-07-21,0.0
2003-07-22,0.0
2003-07-23,0.0
2003-07-24,0.0
2003-07-25,0.0
2003-07-26,0.0
2003-07-27,0.0
2003-07-28,0.0
2003-07-29,0.0
2003-07-30,0.0
2003-07-31,0.0
2003-08-01,0.0
2003-08-02,0.0
2003-08-03,0.0
2003-08-04,0.0
2003-08-05,0.0
2003-08-06,0.0
2003-08-07,0.0
2003-08-08,0.0
2003-08-09,0.0
2003-08-10,0.0
2003-08-11,0.0
2003-08-12,0.0
2003-08-13,0.0
2003-08-14,0.0
2003-08-15,0.0
2003-08-16,0.0
2003-08-17,0.0
2003-08-18,0.0
2003-08-19,0.0
2003-08-20,0.0
2003-08-21,0.0
2003-08-22,0.0
2003-08-23,0.0
2003-08-24,0.0
2003-08-25,0.0
2003-08-26,0.0
2003-08-27,0.0
2003-08-28,0.0
2003-08-29,0.0
2003-08-30,0.0
2003-08-31,0.0
2003-09-01,0.0
2003-09-02,0.0
2003-09-03,0.0
2003-09-04,0.0
2003-09-05,0.0
2003-09-06,0.0
2003-09-07,0.0
2003-09-08,0.0
2003-09-09,0.0
2003-09-10,0.0
2003-09-11,0.0
2003-09-12,0.0
2003-09-13,0.0
2003-09-14,0.0
2003-09-15,0.0
2003-09-16,0.0
2003-09-17,0.0
2003-09-18,0.0
2003-09-19,0.0
2003-09-20,0.0
2003-09-21,0.0
2003-09-22,0.0
2003-09-23,0.0
2003-09-24,0.0
2003-09-25,0.0
2003-09-26,0.0
2003-09-27,0.0
2003-09-28,0.0
2003-09-29,0.0
2003-09-30,0.0
2003-10-01,0.0
2003-10-02,0.0
2003-10-03,0.0
2003-10-04,0.0
2003-10-05,0.0
2003-10-06,0.0
2003-10-07,0.0
2003-10-08,0.0
2003-10-09,0.0
2003-10-10,0.0
2003-10-11,0.0
2003-10-12,0.0
2003-10-13,0.0
2003-10-14,0.0
2003-10-15,0.0
2003-10-16,0.0
2003-10-17,0.0
2003-10-18,0.0
2003-10-19,0.0
2003-10-20,0.0
2003-10-21,0.0
2003-10-22,0.0
2003-10-23,0.0
2003-10-24,0.0
2003-10-25,0.0
2003-10-26,0.0
2003-10-27,0.0
2003-10-28,0.0
2003-10-29,0.0
2003-10-30,0.0
2003-10-31,0.0
2003-11-01,0.0
2003-11-02,0.0
2003-11-03,0.0
2003-11-04,0.0
2003-11-05,0.0
2003-11-06,0.0
2003-11-07,0.0
2003-11-08,0.0
2003-11-09,0.0
2003-11-10,0.0
2003-11-11,0.0
2003-11-12,0.0
2003-11-13,0.0
2003-11-14,0.0
2003-11-15,0.4
2003-11-16,0.6000000000000001
2003-11-17,0.9
2003-11-18,0.9
2003-11-19,0.9
2003-11-20,1.2
2003-11-21,1.2
2003-11-22,1.2
2003-11-23,1.0
2003-11-24,1.2
2003-11-25,1.1
2003-11-26,1.3
2003-11-27,1.2
2003-11-28,1.4
2003-11-29,1.4
2003-11-30,1.6
2003-12-01,1.5
2003-12-02,1.6
2003-12-03,1.5
2003-12-04,1.5
2003-12-05,1.4
2003-12-06,1.2
2003-12-07,1.8
2003-12-08,2.0
2003-12-09,1.9
2003-12-10,2.0
2003-12-11,2.1
2003-12-12,2.1
2003-12-13,2.4
2003-12-14,3.1
2003-12-15,3.8
2003-12-16,3.8
2003-12-17,3.7
2003-12-18,3.7
2003-12-19,3.7
2003-12-20,3.8
2003-12-21,4.0
2003-12-22,4.0
2003-12-23,4.0
2003-12-24,4.2
2003-12-25,4.8
2003-12-26,4.9
2003-12-27,4.9
2003-12-28,4.9
2003-12-29,5.7
2003-12-30,7.2
2003-12-31,7.2
2004-01-01,7.8
2004-01-02,8.9
2004-01-03,9.2
2004-01-04,9.2
2004-01-05,9.3
2004-01-06,9.3
2004-01-07,9.5
2004-01-08,9.9
2004-01-09,10.3
2004-01-10,10.6
2004-01-11,10.7
2004-01-12,10.8
2004-01-13,10.7
2004-01-14,10.7
2004-01-15,10.9
2004-01-16,10.9
2004-01-17,10.9
2004-01-18,10.9
2004-01-19,10.9
2004-01-20,11.0
2004-01-21,11.1
2004-01-22,11.1
2004-01-23,11.1
2004-01-24,11.1
2004-01-25,11.3
2004-01-26,11.2
2004-01-27,11.3
2004-01-28,11.6
2004-01-29,11.7
2004-01-30,11.6
2004-01-31,11.9
2004-02-01,11.9
2004-02-02,11.9
2004-02-03,12.5
2004-02-04,12.9
2004-02-05,13.0
2004-02-06,13.0
2004-02-07,13.3
2004-02-08,13.3
2004-02-09,13.3
2004-02-10,13.3
2004-02-11,13.3
2004-02-12,13.4
2004-02-13,13.3
2004-02-14,13.3
2004-02-15,13.3
2004-02-16,13.6
2004-02-17,14.7
2004-02-18,15.9
2004-02-19,16.4
2004-02-20,16.7
2004-02-21,16.5
2004-02-22,16.5
2004-02-23,16.5
2004-02-24,16.5
2004-02-25,16.7
2004-02-26,17.1
2004-02-27,17.5
2004-02-28,17.6
2004-02-29,17.6
2004-03-01,17.8
2004-03-02,18.0
2004-03-03,18.0
2004-03-04,18.0
2004-03-05,18.0
2004-03-06,17.9
2004-03-07,17.9
2004-03-08,17.6
2004-03-09,17.3
2004-03-10,17.8
2004-03-11,17.8
2004-03-12,17.1
2004-03-13,16.2
2004-03-14,15.7
2004-03-15,15.6
2004-03-16,15.5
2004-03-17,15.1
2004-03-18,14.6
2004-03-19,13.8
2004-03-20,14.3
2004-03-21,13.4
2004-03-22,13.1
2004-03-23,12.7
2004-03-24,12.5
2004-03-25,12.1
2004-03-26,12.8
2004-03-27,13.2
2004-03-28,13.2
2004-03-29,13.1
2004-03-30,12.7
2004-03-31,12.5
2004-04-01,12.9
2004-04-02,13.0
2004-04-03,12.4
2004-04-04,12.1
2004-04-05,11.2
2004-04-06,10.5
2004-04-07,10.0
2004-04-08,9.3
2004-04-09,9.1
2004-04-10,8.4
2004-04-11,7.7
2004-04-12,6.6
2004-04-13,5.7
2004-04-14,4.8
2004-04-15,4.9
2004-04-16,4.9
2004-04-17,5.1
2004-04-18,4.5
2004-04-19,4.6
2004-04-20,4.6
2004-04-21,5.0
2004-04-22,5.4
2004-04-23,5.2
2004-04-24,4.9
2004-04-25,3.9
2004-04-26,2.3
2004-04-27,1.2
2004-04-28,0.30000000000000004
2004-04-29,0.0
2004-04-30,0.0
2004-05-01,0.0
2004-05-02,0.0
2004-05-03,0.0
2004-05-04,0.0
2004-05-05,0.0
2004-05-06,0.0
2004-05-07,0.0
2004-05-08,0.0
2004-05-09,0.0
2004-05-10,0.0
2004-05-11,0.0
2004-05-12,0.0
2004-05-13,0.0
2004-05-14,0.0
2004-05-15,0.0
2004-05-16,0.0
2004-05-17,0.0
2004-05-18,0.0
2004-05-19,0.0
2004-05-20,0.0
2004-05-21,0.0
2004-05-22,0.0
2004-05-23,0.0
2004-05-24,0.0
2004-05-25,0.0
2004-05-26,0.0
2004-05-27,0.0
2004-05-28,0.0
2004-05-29,0.0
2004-05-30,0.0
2004-05-31,0.0
2004-06-01,0.0
2004-06-02,0.0
2004-06-03,0.0
2004-06-04,0.0
2004-06-05,0.0
2004-06-06,0.0
2004-06-07,0.0
2004-06-08,0.0
2004-06-09,0.0
2004-06-10,0.0
2004-06-11,0.0
2004-06-12,0.0
2004-06-13,0.0
2004-06-14,0.0
2004-06-15,0.0
2004-06-16,0.0
2004-06-17,0.0
2004-06-18,0.0
2004-06-19,0.0
2004-06-20,0.0
2004-06-21,0.0
2004-06-22,0.0
2004-06-23,0.0
2004-06-24,0.0
2004-06-25,0.0
2004-06-26,0.0
2004-06-27,0.0
2004-06-28,0.0
2004-06-29,0.0
2004-06-30,0.0
2004-07-01,0.0
2004-07-02,0.0
2004-07-03,0.0
2004-07-04,0.0
2004-07-05,0.0
2004-07-06,0.0
2004-07-07,0.0
2004-07-08,0.0
2004-07-09,0.0
2004-07-10,0.0
2004-07-11,0.0
2004-07-12,0.0
2004-07-13,0.0
2004-07-14,0.0
2004-07-15,0.0
2004-07-16,0.0
2004-07-17,0.0
2004-07-18,0.0
2004-07-19,0.0
2004-07-20,0.0
2004-07-21,0.0
2004-07-22,0.0
2004-07-23,0.0
2004-07-24,0.0
2004-07-25,0.0
2004-07-26,0.0
2004-07-27,0.0
2004-07-28,0.0
2004-07-29,0.0
2004-07-30,0.0
2004-07-31,0.0
2004-08-01,0.0
2004-08-02,0.0
2004-08-03,0.0
2004-08-04,0.0
2004-08-05,0.0
2004-08-06,0.0
2004-08-07,0.0
2004-08-08,0.0
2004-08-09,0.0
2004-08-10,0.0
2004-08-11,0.0
2004-08-12,0.0
2004-08-13,0.0
2004-08-14,0.0
2004-08-15,0.0
2004-08-16,0.0
2004-08-17,0.0
2004-08-18,0.0
2004-08-19,0.0
2004-08-20,0.0
2004-08-21,0.0
2004-08-22,0.0
2004-08-23,0.0
2004-08-24,0.0
2004-08-25,0.0
2004-08-26,0.0
2004-08-27,0.0
2004-08-28,0.0
2004-08-29,0.0
2004-08-30,0.0
2004-08-31,0.0
2004-09-01,0.0
2004-09-02,0.0
2004-09-03,0.0
2004-09-04,0.0
2004-09-05,0.0
2004-09-06,0.0
2004-09-07,0.0
2004-09-08,0.0
2004-09-09,0.0
2004-09-10,0.0
2004-09-11,0.0
2004-09-12,0.0
2004-09-13,0.0
2004-09-14,0.0
2004-09-15,0.0
2004-09-16,0.0
2004-09-17,0.0
2004-09-18,0.0
2004-09-19,0.0
2004-09-20,0.0
2004-09-21,0.0
2004-09-22,0.0
2004-09-23,0.0
2004-09-24,0.0
2004-09-25,0.0
2004-09-26,0.0
2004-09-27,0.0
2004-09-28,0.0
2004-09-29,0.0
2004-09-30,0.0
2004-10-01,0.0
2004-10-02,0.0
2004-10-03,0.0
2004-10-04,0.0
2004-10-05,0.0
2004-10-06,0.0
2004-10-07,0.0
2004-10-08,0.0
2004-10-09,0.0
2004-10-10,0.0
2004-10-11,0.0
2004-10-12,0.0
2004-10-13,0.0
2004-10-14,0.0
2004-10-15,0.0
2004-10-16,0.0
2004-10-17,0.0
2004-10-18,0.5
2004-10-19,0.30000000000000004
2004-10-20,0.5
2004-10-21,0.2
2004-10-22,0.2
2004-10-23,0.2
2004-10-24,0.6000000000000001
2004-10-25,0.6000000000000001
2004-10-26,0.7000000000000001
2004-10-27,1.2
2004-10-28,1.4
2004-10-29,1.4
2004-10-30,1.4
2004-10-31,1.4
2004-11-01,1.3
2004-11-02,1.4
2004-11-03,1.5
2004-11-04,1.8
2004-11-05,1.6
2004-11-06,1.8
2004-11-07,2.0
2004-11-08,2.1
2004-11-09,2.0
2004-11-10,1.8
2004-11-11,1.8
2004-11-12,1.6
2004-11-13,1.4
2004-11-14,1.2
2004-11-15,1.2
2004-11-16,1.1
2004-11-17,0.8
2004-11-18,0.7000000000000001
2004-11-19,0.7000000000000001
2004-11-20,0.6000000000000001
2004-11-21,0.6000000000000001
2004-11-22,0.5
2004-11-23,0.6000000000000001
2004-11-24,0.5
2004-11-25,0.5
2004-11-26,0.8
2004-11-27,0.9
2004-11-28,0.9
2004-11-29,0.8
2004-11-30,0.8
2004-12-01,0.9
2004-12-02,0.9
2004-12-03,0.8
2004-12-04,0.8
2004-12-05,0.9
2004-12-06,0.9
2004-12-07,2.2
2004-12-08,3.2
2004-12-09,6.1
2004-12-10,6.4
2004-12-11,6.3
2004-12-12,6.3
2004-12-13,6.3
2004-12-14,6.3
2004-12-15,6.5
2004-12-16,6.5
2004-12-17,6.7
2004-12-18,6.7
2004-12-19,6.8
2004-12-20,6.9
2004-12-21,6.9
2004-12-22,6.8
2004-12-23,6.8
2004-12-24,6.7
2004-12-25,6.6
2004-12-26,6.6
2004-12-27,6.6
2004-12-28,6.7
2004-12-29,7.0
2004-12-30,7.3
2004-12-31,7.6
2005-01-01,7.9
2005-01-02,8.4
2005-01-03,8.7
2005-01-04,8.6
2005-01-05,8.7
2005-01-06,8.7
2005-01-07,8.7
2005-01-08,9.3
2005-01-09,9.8
2005-01-10,10.0
2005-01-11,10.1
2005-01-12,9.9
2005-01-13,9.9
2005-01-14,9.9
2005-01-15,9.9
2005-01-16,10.0
2005-01-17,9.9
2005-01-18,9.9
2005-01-19,9.9
2005-01-20,10.0
2005-01-21,10.0
2005-01-22,10.0
2005-01-23,10.0
2005-01-24,10.0
2005-01-25,10.0
2005-01-26,9.9
2005-01-27,9.9
2005-01-28,10.0
2005-01-29,10.3
2005-01-30,10.4
2005-01-31,10.4
2005-02-01,10.5
2005-02-02,10.5
2005-02-03,10.5
2005-02-04,10.6
2005-02-05,10.5
2005-02-06,10.6
2005-02-07,10.4
2005-02-08,10.5
2005-02-09,10.5
2005-02-10,10.5
2005-02-11,10.6
2005-02-12,10.5
2005-02-13,10.3
2005-02-14,10.6
2005-02-15,10.7
2005-02-16,10.7
2005-02-17,10.8
2005-02-18,10.8
2005-02-19,10.4
2005-02-20,10.7
2005-02-21,11.3
2005-02-22,11.4
2005-02-23,11.4
2005-02-24,11.4
2005-02-25,11.4
2005-02-26,11.4
2005-02-27,11.4
2005-02-28,11.4
2005-03-01,11.4
2005-03-02,11.8
2005-03-03,12.4
2005-03-04,11.9
2005-03-05,12.0
2005-03-06,12.0
2005-03-07,11.9
2005-03-08,11.8
2005-03-09,11.5
2005-03-10,11.2
2005-03-11,10.9
2005-03-12,10.4
2005-03-13,10.2
2005-03-14,10.2
2005-03-15,10.0
2005-03-16,9.5
2005-03-17,9.4
2005-03-18,9.6
2005-03-19,8.9
2005-03-20,9.1
2005-03-21,9.4
2005-03-22,9.7
2005-03-23,10.0
2005-03-24,10.1
2005-03-25,10.3
2005-03-26,10.3
2005-03-27,10.0
2005-03-28,10.9
2005-03-29,11.2
2005-03-30,11.6
2005-03-31,11.8
2005-04-01,11.5
2005-04-02,11.5
2005-04-03,11.3
2005-04-04,12.1
2005-04-05,12.2
2005-04-06,11.9
2005-04-07,11.1
2005-04-08,11.7
2005-04-09,11.9
2005-04-10,12.0
2005-04-11,11.4
2005-04-12,11.0
2005-04-13,11.2
2005-04-14,11.2
2005-04-15,11.2
2005-04-16,10.4
2005-04-17,10.1
2005-04-18,10.3
2005-04-19,10.2
2005-04-20,10.2
2005-04-21,9.8
2005-04-22,9.7
2005-04-23,8.9
2005-04-24,8.7
2005-04-25,8.2
2005-04-26,7.7
2005-04-27,7.1
2005-04-28,6.6
2005-04-29,5.9
2005-04-30,5.1
2005-05-01,4.6
2005-05-02,3.9
2005-05-03,3.2
2005-05-04,1.8
2005-05-05,1.0
2005-05-06,0.2
2005-05-07,0.0
2005-05-08,0.0
2005-05-09,0.0
2005-05-10,0.2
2005-05-11,0.5
2005-05-12,0.0
2005-05-13,0.0
2005-05-14,0.0
2005-05-15,0.0
2005-05-16,0.0
2005-05-17,0.0
2005-05-18,0.0
2005-05-19,0.0
2005-05-20,0.0
2005-05-21,0.0
2005-05-22,0.0
2005-05-23,0.0
2005-05-24,0.0
2005-05-25,0.0
2005-05-26,0.0
2005-05-27,0.0
2005-05-28,0.0
2005-05-29,0.0
2005-05-30,0.0
2005-05-31,0.0
2005-06-01,0.0
2005-06-02,0.0
2005-06-03,0.0
2005-06-04,0.0
2005-06-05,0.0
2005-06-06,0.0
2005-06-07,0.0
2005-06-08,0.0
2005-06-09,0.0
2005-06-10,0.0
2005-06-11,0.0
2005-06-12,0.0
2005-06-13,0.0
2005-06-14,0.0
2005-06-15,0.0
2005-06-16,0.0
2005-06-17,0.0
2005-06-18,0.0
2005-06-19,0.0
2005-06-20,0.0
2005-06-21,0.0
2005-06-22,0.0
2005-06-23,0.0
2005-06-24,0.0
2005-06-25,0.0
2005-06-26,0.0
2005-06-27,0.0
2005-06-28,0.0
2005-06-29,0.0
2005-06-30,0.0
2005-07-01,0.0
2005-07-02,0.0
2005-07-03,0.0
2005-07-04,0.0
2005-07-05,0.0
2005-07-06,0.0
2005-07-07,0.0
2005-07-08,0.0
2005-07-09,0.0
2005-07-10,0.0
2005-07-11,0.0
2005-07-12,0.0
2005-07-13,0.0
2005-07-14,0.0
2005-07-15,0.0
2005-07-16,0.0
2005-07-17,0.0
2005-07-18,0.0
2005-07-19,0.0
2005-07-20,0.0
2005-07-21,0.0
2005-07-22,0.0
2005-07-23,0.0
2005-07-24,0.0
2005-07-25,0.0
2005-07-26,0.0
2005-07-27,0.0
2005-07-28,0.0
2005-07-29,0.0
2005-07-30,0.0
2005-07-31,0.0
2005-08-01,0.0
2005-08-02,0.0
2005-08-03,0.0
2005-08-04,0.0
2005-08-05,0.0
2005-08-06,0.0
2005-08-07,0.0
2005-08-08,0.0
2005-08-09,0.0
2005-08-10,0.0
2005-08-11,0.0
2005-08-12,0.0
2005-08-13,0.0
2005-08-14,0.0
2005-08-15,0.0
2005-08-16,0.0
2005-08-17,0.0
2005-08-18,0.0
2005-08-19,0.0
2005-08-20,0.0
2005-08-21,0.0
2005-08-22,0.0
2005-08-23,0.0
2005-08-24,0.0
2005-08-25,0.0
2005-08-26,0.0
2005-08-27,0.0
2005-08-28,0.0
2005-08-29,0.0
2005-08-30,0.0
2005-08-31,0.0
2005-09-01,0.0
2005-09-02,0.0
2005-09-03,0.0
2005-09-04,0.0
2005-09-05,0.0
2005-09-06,0.0
2005-09-07,0.0
2005-09-08,0.0
2005-09-09,0.0
2005-09-10,0.0
2005-09-11,0.0
2005-09-12,0.0
2005-09-13,0.0
2005-09-14,0.0
2005-09-15,0.0
2005-09-16,0.0
2005-09-17,0.0
2005-09-18,0.0
2005-09-19,0.0
2005-09-20,0.0
2005-09-21,0.0
2005-09-22,0.0
2005-09-23,0.0
2005-09-24,0.0
2005-09-25,0.0
2005-09-26,0.0
2005-09-27,0.0
2005-09-28,0.0
2005-09-29,0.0
2005-09-30,0.0
2005-10-01,0.0
2005-10-02,0.0
2005-10-03,0.0
2005-10-04,0.0
2005-10-05,0.0
2005-10-06,0.0
2005-10-07,0.0
2005-10-08,0.0
2005-10-09,0.0
2005-10-10,0.0
2005-10-11,0.0
2005-10-12,0.0
2005-10-13,0.0
2005-10-14,0.0
2005-10-15,0.0
2005-10-16,0.0
2005-10-17,0.0
2005-10-18,0.0
2005-10-19,0.0
2005-10-20,0.0
2005-10-21,0.0
2005-10-22,0.0
2005-10-23,0.0
2005-10-24,0.0
2005-10-25,0.0
2005-10-26,0.0
2005-10-27,0.0
2005-10-28,0.0
2005-10-29,0.0
2005-10-30,0.0
2005-10-31,0.0
2005-11-01,0.0
2005-11-02,0.0
2005-11-03,0.1
2005-11-04,1.6
2005-11-05,1.6
2005-11-06,2.4
2005-11-07,3.4
2005-11-08,4.1
2005-11-09,4.1
2005-11-10,4.0
2005-11-11,4.0
2005-11-12,3.9
2005-11-13,3.8
2005-11-14,3.9
2005-11-15,3.9
2005-11-16,3.8
2005-11-17,3.8
2005-11-18,3.9
2005-11-19,3.7
2005-11-20,3.8
2005-11-21,3.9
2005-11-22,3.9
2005-11-23,4.0
2005-11-24,3.9
2005-11-25,3.9
2005-11-26,4.2
2005-11-27,4.3
2005-11-28,4.7
2005-11-29,4.9
2005-11-30,5.1
2005-12-01,5.6
2005-12-02,6.9
2005-12-03,7.0
2005-12-04,7.1